Toluca Jose Maria, Mexico

12:46 AM CDT on September 29, 2016 (GMT -0500)
Lic Adolfo Lopez Mateos International

Weather History for MMTO - September, 2012

Change the Weather History Date:

Tuesday, September 25, 2012

  Actual Average Record
Temperature  
Mean Temperature 60 °F -  
Max Temperature 69 °F 67 °F 75 °F (1999)
Min Temperature 50 °F 47 °F 35 °F (2007)
Degree Days  
Heating Degree Days 6    
Growing Degree Days 10 (Base 50)    
Moisture  
Dew Point 49 °F    
Average Humidity 76    
Maximum Humidity 94    
Minimum Humidity 40    
Precipitation  
Precipitation 0.35 in - - ()
Sea Level Pressure  
Sea Level Pressure 30.18 in    
Wind  
Wind Speed 5 mph ()    
Max Wind Speed 14 mph    
Max Gust Speed -    
Visibility 7.0 miles    
Events Rain , Thunderstorm    
Averages and records for this station are not official NWS values.
T = Trace of Precipitation, MM = Missing Value Source: Averaged Metar Reports

Daily Weather History Graph

Daily Weather History Graph

Search for Another Location

Airport or City:

Trip Planner

Search our weather history database for the weather conditions in past years. The results will help you decide how hot, cold, wet, or windy it might be!

Date:

Astronomy

Sep. 25, 2012 Rise Set
Actual Time 7:27 AM CDT 7:31 PM CDT
Civil Twilight 7:05 AM CDT 7:53 PM CDT
Nautical Twilight 6:40 AM CDT 8:18 PM CDT
Astronomical Twilight 6:14 AM CDT 8:44 PM CDT
Moon 4:29 PM CDT (9/25) 3:23 AM CDT (9/25)
Length of Visible Light 12h 47m
Length of Day
12h 03m
Waxing Gibbous, 80% of the Moon is Illuminated
Sep 25
Waxing Gibbous
Sep 29
Full
Oct 8
Last Quarter
Oct 15
New
Oct 21
First Quarter

Hourly Weather History & Observations

Time (CDT) Temp. Dew Point Humidity Pressure Visibility Wind Dir Wind Speed Gust Speed Precip Events Conditions
12:45 AM 55.4 °F 48.2 °F 77% 29.84 in 7.0 mi ENE 10.4 mph - N/A   Scattered Clouds
1:45 AM 53.6 °F 46.4 °F 77% 30.38 in 7.0 mi ENE 6.9 mph - N/A   Scattered Clouds
2:45 AM 53.6 °F 48.2 °F 82% 30.37 in 7.0 mi Calm Calm - N/A   Scattered Clouds
3:45 AM 50.0 °F 46.4 °F 87% 29.81 in 7.0 mi Calm Calm - N/A   Scattered Clouds
4:45 AM 51.8 °F 48.2 °F 88% 30.34 in 7.0 mi Calm Calm - N/A   Scattered Clouds
5:45 AM 51.8 °F 48.2 °F 88% 30.35 in 7.0 mi West 10.4 mph - N/A   Mostly Cloudy
6:45 AM 51.8 °F 48.2 °F 88% 29.83 in 5.0 mi North 4.6 mph - N/A   Mostly Cloudy
7:41 AM 50.0 °F 48.2 °F 94% 30.37 in 5.0 mi NNE 3.5 mph - N/A   Mostly Cloudy
8:40 AM 53.6 °F 48.2 °F 82% 30.38 in 5.0 mi Calm Calm - N/A   Mostly Cloudy
9:44 AM 57.2 °F 48.2 °F 72% 29.86 in 5.0 mi East 4.6 mph - N/A   Mostly Cloudy
10:40 AM 60.8 °F 48.2 °F 63% 30.40 in 7.0 mi NNE 8.1 mph - N/A   Mostly Cloudy
11:40 AM 62.6 °F 48.2 °F 59% 30.40 in 7.0 mi NNE 6.9 mph - N/A   Mostly Cloudy
2:40 PM 68.0 °F 48.2 °F 49% 30.30 in 10.0 mi NNE 9.2 mph - N/A   Mostly Cloudy
3:44 PM 69.8 °F 44.6 °F 40% 29.69 in 10.0 mi ENE 6.9 mph - N/A   Mostly Cloudy
4:50 PM 62.6 °F 48.2 °F 59% 30.25 in 10.0 mi West 11.5 mph - N/A Thunderstorm Thunderstorm
5:08 PM 62.6 °F 51.8 °F 68% 30.26 in 7.0 mi South 9.2 mph - N/A Rain , Thunderstorm Thunderstorms and Rain
5:50 PM 55.4 °F 50.0 °F 82% 30.34 in 7.0 mi SSW 13.8 mph - N/A Rain , Thunderstorm Light Thunderstorms and Rain
6:40 PM 57.2 °F 50.0 °F 77% 29.78 in 7.0 mi ESE 8.1 mph - N/A   Mostly Cloudy
7:41 PM 57.2 °F 51.8 °F 82% 30.31 in 7.0 mi NE 4.6 mph - N/A   Overcast
8:41 PM 55.4 °F 48.2 °F 77% 30.34 in 7.0 mi WNW 5.8 mph - N/A   Mostly Cloudy
9:46 PM 55.4 °F 50.0 °F 82% 29.85 in 7.0 mi NE 4.6 mph - N/A   Mostly Cloudy
10:40 PM 53.6 °F 50.0 °F 88% 30.38 in 7.0 mi SE 5.8 mph - N/A   Mostly Cloudy
11:45 PM 53.6 °F 48.2 °F 82% 30.38 in 6.0 mi WNW 3.5 mph - N/A   Mostly Cloudy